Weather History for South Lake Tahoe, CA

Change the Weather History Date:

Tuesday, February 5, 2013

  Actual Average Record
Temperature  
Mean Temperature 38 °F 30 °F  
Max Temperature 50 °F 43 °F 59 °F (1963)
Min Temperature 26 °F 17 °F -19 °F (1989)
Degree Days  
Heating Degree Days 27 35  
Month to date heating degree days 151 175  
Since 1 July heating degree days 4222 4457  
Cooling Degree Days 0 0  
Month to date cooling degree days 0 0  
Year to date cooling degree days 0 0  
Moisture  
Dew Point 18 °F    
Average Humidity 49    
Maximum Humidity 78    
Minimum Humidity 20    
Precipitation  
Precipitation 0.00 in - 1.21 in (1937)
Month to date precipitation 0.00  
Year to date precipitation 0.71  
Sea Level Pressure  
Sea Level Pressure 30.00 in    
Wind  
Wind Speed 6 mph (South)    
Max Wind Speed 23 mph    
Max Gust Speed 38 mph    
Visibility 10 miles    
Events      
T = Trace of Precipitation, MM = Missing Value Source: NWS Daily Summary

Daily Weather History Graph

Daily Weather History Graph

Search for Another Location

Airport:

Trip Planner

Search our weather history database for the weather conditions in past years. The results will help you decide how hot, cold, wet, or windy it might be!

Date:

Astronomy

Feb. 05, 2013 Rise Set
Actual Time 7:02 AM PST 5:26 PM PST
Civil Twilight 6:34 AM PST 5:54 PM PST
Nautical Twilight 6:02 AM PST 6:26 PM PST
Astronomical Twilight 5:31 AM PST 6:57 PM PST
Moon 2:48 AM PST (2/5) 12:49 PM PST (2/5)
Length of Visible Light 11h 20m
Length of Day
10h 24m
Waning Crescent, 25% of the Moon is Illuminated
Feb 5
Waning Crescent
Feb 9
New
Feb 17
First Quarter
Feb 25
Full
Mar 4
Last Quarter

Hourly Weather History & Observations

Time (PST) Temp. Windchill Dew Point Humidity Pressure Visibility Wind Dir Wind Speed Gust Speed Precip Events Conditions
12:53 AM 28.9 °F 23.9 °F 23.0 °F 78% 30.07 in 10.0 mi SSW 4.6 mph - N/A   Clear
1:53 AM 28.9 °F 25.2 °F 21.9 °F 75% 30.06 in 10.0 mi South 3.5 mph - N/A   Clear
2:53 AM 28.9 °F - 21.9 °F 75% 30.04 in 10.0 mi Calm Calm - N/A   Clear
3:53 AM 42.1 °F 37.7 °F 19.0 °F 40% 30.01 in 10.0 mi SSW 6.9 mph - N/A   Clear
4:53 AM 39.0 °F 35.7 °F 19.0 °F 45% 30.04 in 10.0 mi SW 4.6 mph - N/A   Clear
5:53 AM 37.9 °F 35.5 °F 17.1 °F 43% 30.04 in 10.0 mi SSW 3.5 mph - N/A   Clear
6:53 AM 30.0 °F 26.5 °F 17.1 °F 59% 30.05 in 10.0 mi South 3.5 mph - N/A   Clear
7:53 AM 28.9 °F 25.2 °F 17.1 °F 61% 30.07 in 10.0 mi SSW 3.5 mph - N/A   Clear
8:53 AM 35.1 °F - 15.1 °F 44% 30.04 in 10.0 mi Calm Calm - N/A   Clear
9:53 AM 46.0 °F 41.4 °F 14.0 °F 28% 30.01 in 10.0 mi South 9.2 mph - N/A   Clear
10:53 AM 48.9 °F - 12.0 °F 23% 30.01 in 10.0 mi SSW 8.1 mph 21.9 mph N/A   Clear
11:53 AM 50.0 °F - 10.0 °F 20% 29.97 in 10.0 mi South 13.8 mph 20.7 mph N/A   Clear
12:53 PM 48.9 °F - 14.0 °F 25% 29.96 in 10.0 mi SSW 10.4 mph 20.7 mph N/A   Clear
1:53 PM 46.9 °F - 17.1 °F 30% 29.94 in 10.0 mi South 12.7 mph 21.9 mph N/A   Clear
2:53 PM 45.0 °F 41.2 °F 19.0 °F 36% 29.94 in 10.0 mi South 6.9 mph 21.9 mph N/A   Clear
3:53 PM 45.0 °F 38.2 °F 18.0 °F 34% 29.89 in 10.0 mi South 15.0 mph 27.6 mph N/A   Clear
4:53 PM 44.1 °F 36.5 °F 18.0 °F 35% 29.89 in 10.0 mi South 17.3 mph 24.2 mph N/A   Clear
5:53 PM 41.0 °F 32.2 °F 18.0 °F 40% 29.92 in 10.0 mi South 18.4 mph 26.5 mph N/A   Clear
6:53 PM 37.9 °F 29.2 °F 24.1 °F 57% 29.97 in 10.0 mi South 15.0 mph 23.0 mph N/A   Clear
7:53 PM 37.0 °F 32.4 °F 25.0 °F 62% 30.01 in 10.0 mi SSE 5.8 mph 16.1 mph N/A   Clear
8:53 PM 35.1 °F 27.9 °F 23.0 °F 61% 30.01 in 10.0 mi South 9.2 mph - N/A   Clear
9:53 PM 34.0 °F 27.2 °F 18.0 °F 52% 29.99 in 10.0 mi SSW 8.1 mph - N/A   Clear
10:53 PM 28.9 °F - 15.1 °F 56% 30.01 in 10.0 mi Calm Calm - N/A   Clear
11:53 PM 26.1 °F - 15.1 °F 63% 30.03 in 10.0 mi Calm Calm - N/A   Clear